QPF
0.02 0.02 0.03 0.03 0.03 0.05 0.05 0.05 0.05 0.03 0.03 0.04 0.07 0.07 0.07 0.08 0.10 0.09 0.06 0.06 0.06 0.05 0.05 0.04 0.04 0.04 0.05 0.08 0.11 0.13 0.14 0.13 0.11 0.11 0.08 0.07 0.06 0.05
0.02 0.02 0.02 0.03 0.03 0.04 0.05 0.05 0.05 0.05 0.04 0.04 0.04 0.06 0.08 0.08 0.08 0.08 0.08 0.09 0.09 0.08 0.07 0.06 0.06 0.05 0.04 0.05 0.07 0.09 0.11 0.12 0.12 0.11 0.09 0.07 0.05 0.05
0.02 0.02 0.02 0.03 0.03 0.03 0.04 0.04 0.04 0.03 0.03 0.03 0.04 0.06 0.09 0.09 0.08 0.09 0.10 0.10 0.10 0.10 0.09 0.08 0.07 0.07 0.06 0.05 0.05 0.05 0.07 0.08 0.08 0.08 0.07 0.06 0.05 0.04
0.01 0.01 0.02 0.03 0.03 0.03 0.04 0.04 0.04 0.04 0.03 0.02 0.02 0.03 0.07 0.10 0.10 0.10 0.11 0.12 0.11 0.12 0.12 0.11 0.09 0.07 0.06 0.06 0.05 0.04 0.05 0.05 0.06 0.05 0.04 0.04 0.04 0.04
0.02 0.02 0.02 0.02 0.03 0.02 0.03 0.04 0.04 0.05 0.05 0.03 0.02 0.02 0.04 0.09 0.12 0.12 0.12 0.12 0.12 0.12 0.12 0.13 0.12 0.10 0.08 0.06 0.05 0.05 0.04 0.04 0.04 0.04 0.03 0.03 0.04 0.04
0.03 0.03 0.02 0.02 0.03 0.02 0.02 0.02 0.03 0.04 0.04 0.03 0.04 0.03 0.04 0.07 0.10 0.10 0.12 0.12 0.13 0.12 0.12 0.12 0.13 0.11 0.10 0.08 0.07 0.06 0.05 0.04 0.04 0.04 0.03 0.02 0.02 0.03
0.03 0.03 0.03 0.02 0.02 0.03 0.02 0.02 0.02 0.03 0.03 0.04 0.03 0.03 0.04 0.06 0.07 0.08 0.09 0.11 0.12 0.13 0.14 0.14 0.14 0.14 0.12 0.11 0.11 0.09 0.07 0.07 0.06 0.04 0.04 0.03 0.03 0.03
0.02 0.01 0.01 0.01 0.01 0.02 0.03 0.03 0.02 0.02 0.03 0.03 0.03 0.02 0.02 0.05 0.07 0.09 0.10 0.12 0.11 0.10 0.12 0.13 0.13 0.13 0.12 0.10 0.10 0.10 0.09 0.08 0.07 0.06 0.05 0.04 0.05 0.05
0.02 0.02 0.01 0.01 0.01 0.01 0.02 0.04 0.04 0.03 0.03 0.03 0.03 0.02 0.02 0.03 0.05 0.08 0.09 0.10 0.10 0.13 0.12 0.10 0.12 0.11 0.10 0.09 0.08 0.08 0.09 0.10 0.10 0.09 0.08 0.08 0.07 0.08
0.02 0.03 0.02 0.01 0.02 0.01 0.01 0.01 0.02 0.03 0.03 0.03 0.03 0.03 0.04 0.04 0.05 0.06 0.08 0.09 0.10 0.12 0.12 0.10 0.10 0.10 0.10 0.08 0.08 0.07 0.07 0.07 0.08 0.10 0.11 0.11 0.10 0.09
0.01 0.01 0.02 0.02 0.03 0.02 0.02 0.01 0.01 0.02 0.03 0.04 0.04 0.05 0.06 0.06 0.06 0.06 0.06 0.07 0.09 0.10 0.10 0.10 0.09 0.08 0.08 0.09 0.09 0.08 0.08 0.07 0.07 0.07 0.08 0.09 0.12 0.13
0.01 0.01 0.01 0.02 0.04 0.03 0.02 0.01 0.01 0.02 0.03 0.03 0.03 0.02 0.03 0.04 0.05 0.05 0.07 0.08 0.09 0.08 0.09 0.10 0.09 0.09 0.07 0.06 0.07 0.08 0.08 0.08 0.08 0.08 0.08 0.09 0.11 0.12
0.00 0.00 0.01 0.03 0.04 0.04 0.03 0.03 0.02 0.03 0.02 0.02 0.02 0.02 0.02 0.03 0.04 0.05 0.06 0.07 0.09 0.09 0.10 0.09 0.09 0.09 0.07 0.06 0.05 0.06 0.06 0.07 0.08 0.07 0.07 0.07 0.08 0.08
0.00 0.00 0.00 0.01 0.02 0.02 0.03 0.03 0.03 0.03 0.03 0.03 0.03 0.03 0.02 0.02 0.02 0.03 0.04 0.04 0.06 0.08 0.11 0.11 0.10 0.10 0.10 0.07 0.06 0.06 0.07 0.07 0.07 0.07 0.07 0.07 0.07 0.09
0.00 0.00 0.01 0.01 0.01 0.01 0.01 0.03 0.03 0.02 0.02 0.02 0.02 0.03 0.04 0.03 0.03 0.04 0.05 0.05 0.06 0.06 0.06 0.08 0.10 0.10 0.10 0.09 0.06 0.05 0.06 0.07 0.07 0.07 0.07 0.06 0.06 0.07
0.01 0.01 0.02 0.01 0.01 0.01 0.01 0.02 0.03 0.02 0.01 0.02 0.02 0.03 0.04 0.05 0.06 0.06 0.05 0.05 0.05 0.04 0.05 0.06 0.09 0.11 0.11 0.09 0.08 0.06 0.05 0.05 0.06 0.07 0.07 0.07 0.07 0.06
0.00 0.00 0.00 0.01 0.01 0.01 0.01 0.01 0.02 0.02 0.01 0.01 0.02 0.03 0.03 0.04 0.04 0.06 0.07 0.06 0.04 0.03 0.02 0.04 0.06 0.09 0.10 0.11 0.11 0.09 0.07 0.06 0.05 0.06 0.07 0.08 0.08 0.08
0.00 0.00 0.00 0.00 0.00 0.00 0.01 0.01 0.01 0.01 0.01 0.01 0.01 0.01 0.02 0.02 0.03 0.03 0.05 0.06 0.06 0.04 0.04 0.05 0.05 0.06 0.07 0.08 0.09 0.09 0.09 0.08 0.08 0.08 0.08 0.09 0.10 0.09
0.00 0.00 0.00 0.00 0.00 0.00 0.00 0.00 0.01 0.02 0.02 0.01 0.01 0.01 0.01 0.02 0.03 0.03 0.03 0.04 0.03 0.03 0.03 0.05 0.06 0.06 0.06 0.05 0.05 0.05 0.07 0.08 0.09 0.10 0.08 0.07 0.07 0.08
0.00 0.00 0.00 0.00 0.00 0.00 0.00 0.00 0.00 0.00 0.00 0.01 0.02 0.01 0.01 0.02 0.03 0.04 0.04 0.05 0.05 0.04 0.03 0.03 0.04 0.04 0.04 0.05 0.05 0.04 0.05 0.05 0.06 0.07 0.06 0.06 0.07 0.08
0.00 0.00 0.00 0.00 0.00 0.00 0.00 0.00 0.00 0.00 0.00 0.00 0.01 0.01 0.02 0.03 0.03 0.04 0.04 0.05 0.05 0.06 0.06 0.04 0.03 0.04 0.05 0.05 0.05 0.04 0.03 0.04 0.06 0.07 0.06 0.07 0.07 0.07
0.00 0.00 0.00 0.00 0.00 0.00 0.00 0.00 0.00 0.00 0.00 0.00 0.00 0.00 0.01 0.01 0.01 0.02 0.02 0.04 0.05 0.05 0.05 0.06 0.06 0.06 0.05 0.06 0.05 0.04 0.04 0.04 0.05 0.06 0.07 0.06 0.06 0.05
0.00 0.00 0.00 0.00 0.00 0.00 0.00 0.00 0.00 0.00 0.00 0.00 0.00 0.00 0.00 0.01 0.01 0.01 0.01 0.02 0.04 0.06 0.07 0.07 0.07 0.08 0.07 0.07 0.07 0.07 0.06 0.05 0.04 0.04 0.04 0.04 0.04 0.04
MSLP
1012.37 1012.29 1012.25 1012.22 1012.16 1012.05 1011.89 1011.67 1011.42 1011.15 1010.89 1010.66 1010.48 1010.35 1010.26 1010.22 1010.21 1010.25 1010.33 1010.46 1010.65 1010.89 1011.18 1011.51 1011.86 1012.21 1012.55 1012.86 1013.14 1013.40 1013.65 1013.92 1014.22 1014.57 1014.98 1015.42 1015.89 1016.37
1012.51 1012.38 1012.27 1012.17 1012.07 1011.93 1011.76 1011.56 1011.34 1011.10 1010.88 1010.67 1010.49 1010.34 1010.21 1010.11 1010.03 1009.98 1009.98 1010.03 1010.15 1010.34 1010.60 1010.91 1011.25 1011.60 1011.95 1012.26 1012.55 1012.82 1013.08 1013.35 1013.66 1014.01 1014.42 1014.87 1015.36 1015.84
1012.69 1012.51 1012.35 1012.21 1012.07 1011.92 1011.76 1011.58 1011.39 1011.20 1011.01 1010.84 1010.66 1010.49 1010.32 1010.15 1009.99 1009.85 1009.76 1009.72 1009.75 1009.87 1010.06 1010.33 1010.64 1010.98 1011.32 1011.64 1011.93 1012.21 1012.48 1012.77 1013.08 1013.45 1013.86 1014.32 1014.80 1015.28
1012.90 1012.69 1012.51 1012.34 1012.18 1012.03 1011.87 1011.72 1011.57 1011.42 1011.27 1011.12 1010.95 1010.77 1010.56 1010.33 1010.10 1009.87 1009.67 1009.53 1009.46 1009.49 1009.60 1009.80 1010.06 1010.36 1010.67 1010.98 1011.27 1011.56 1011.84 1012.14 1012.48 1012.85 1013.27 1013.73 1014.21 1014.69
1013.14 1012.92 1012.72 1012.54 1012.37 1012.22 1012.08 1011.94 1011.82 1011.70 1011.58 1011.45 1011.29 1011.10 1010.87 1010.60 1010.30 1009.99 1009.71 1009.47 1009.30 1009.22 1009.24 1009.35 1009.53 1009.76 1010.02 1010.29 1010.57 1010.85 1011.14 1011.46 1011.80 1012.19 1012.62 1013.08 1013.56 1014.04
1013.37 1013.16 1012.96 1012.78 1012.61 1012.45 1012.31 1012.19 1012.08 1011.98 1011.87 1011.75 1011.60 1011.41 1011.16 1010.87 1010.53 1010.17 1009.82 1009.51 1009.25 1009.08 1008.99 1008.99 1009.07 1009.22 1009.40 1009.62 1009.86 1010.11 1010.39 1010.71 1011.06 1011.46 1011.89 1012.36 1012.84 1013.32
1013.55 1013.36 1013.18 1013.00 1012.83 1012.67 1012.52 1012.39 1012.27 1012.16 1012.06 1011.94 1011.80 1011.61 1011.37 1011.08 1010.73 1010.36 1009.98 1009.61 1009.29 1009.04 1008.85 1008.75 1008.72 1008.76 1008.85 1008.98 1009.16 1009.37 1009.62 1009.92 1010.27 1010.67 1011.11 1011.57 1012.05 1012.53
1013.64 1013.48 1013.32 1013.15 1012.98 1012.81 1012.64 1012.49 1012.35 1012.22 1012.10 1011.97 1011.83 1011.66 1011.44 1011.17 1010.85 1010.50 1010.12 1009.75 1009.39 1009.07 1008.81 1008.61 1008.47 1008.40 1008.38 1008.42 1008.52 1008.67 1008.88 1009.15 1009.48 1009.86 1010.29 1010.75 1011.23 1011.70
1013.59 1013.47 1013.34 1013.19 1013.02 1012.84 1012.65 1012.46 1012.29 1012.12 1011.97 1011.84 1011.69 1011.53 1011.35 1011.12 1010.86 1010.55 1010.21 1009.85 1009.49 1009.14 1008.82 1008.54 1008.31 1008.13 1008.01 1007.95 1007.96 1008.04 1008.19 1008.41 1008.71 1009.07 1009.48 1009.92 1010.38 1010.84
1013.38 1013.30 1013.21 1013.09 1012.93 1012.75 1012.54 1012.32 1012.10 1011.90 1011.72 1011.55 1011.41 1011.26 1011.11 1010.93 1010.73 1010.48 1010.20 1009.88 1009.54 1009.19 1008.84 1008.50 1008.19 1007.92 1007.70 1007.55 1007.47 1007.48 1007.56 1007.74 1007.99 1008.31 1008.69 1009.10 1009.54 1009.98
1013.01 1012.99 1012.94 1012.86 1012.73 1012.55 1012.34 1012.09 1011.84 1011.60 1011.38 1011.18 1011.02 1010.89 1010.76 1010.63 1010.47 1010.29 1010.06 1009.79 1009.48 1009.14 1008.77 1008.40 1008.04 1007.70 1007.41 1007.18 1007.02 1006.96 1006.98 1007.09 1007.30 1007.57 1007.91 1008.29 1008.69 1009.11
1012.54 1012.57 1012.58 1012.55 1012.45 1012.30 1012.08 1011.82 1011.54 1011.27 1011.01 1010.79 1010.60 1010.46 1010.34 1010.23 1010.11 1009.96 1009.78 1009.55 1009.26 1008.93 1008.56 1008.17 1007.77 1007.39 1007.04 1006.76 1006.54 1006.42 1006.38 1006.44 1006.59 1006.82 1007.11 1007.45 1007.82 1008.21
1012.04 1012.12 1012.19 1012.20 1012.15 1012.02 1011.81 1011.55 1011.26 1010.96 1010.67 1010.41 1010.20 1010.03 1009.89 1009.77 1009.65 1009.52 1009.35 1009.13 1008.86 1008.53 1008.16 1007.75 1007.33 1006.92 1006.55 1006.22 1005.96 1005.79 1005.71 1005.72 1005.82 1006.00 1006.25 1006.55 1006.89 1007.26
1011.59 1011.72 1011.82 1011.88 1011.86 1011.76 1011.57 1011.32 1011.02 1010.70 1010.39 1010.10 1009.85 1009.64 1009.46 1009.31 1009.16 1009.00 1008.81 1008.57 1008.28 1007.94 1007.56 1007.14 1006.71 1006.28 1005.88 1005.53 1005.25 1005.04 1004.93 1004.90 1004.96 1005.10 1005.31 1005.58 1005.89 1006.24
1011.29 1011.43 1011.56 1011.64 1011.65 1011.56 1011.40 1011.16 1010.86 1010.54 1010.20 1009.88 1009.59 1009.32 1009.09 1008.88 1008.68 1008.46 1008.22 1007.93 1007.60 1007.23 1006.82 1006.38 1005.93 1005.49 1005.08 1004.71 1004.41 1004.19 1004.05 1003.99 1004.02 1004.13 1004.30 1004.54 1004.84 1005.18
1011.20 1011.33 1011.45 1011.53 1011.54 1011.47 1011.32 1011.09 1010.80 1010.47 1010.12 1009.78 1009.44 1009.13 1008.84 1008.55 1008.27 1007.98 1007.65 1007.30 1006.91 1006.49 1006.03 1005.56 1005.09 1004.64 1004.21 1003.84 1003.52 1003.28 1003.13 1003.05 1003.05 1003.13 1003.28 1003.50 1003.78 1004.12
1011.35 1011.45 1011.54 1011.59 1011.59 1011.51 1011.36 1011.14 1010.85 1010.53 1010.17 1009.81 1009.45 1009.09 1008.73 1008.38 1008.01 1007.63 1007.22 1006.79 1006.32 1005.84 1005.33 1004.82 1004.31 1003.83 1003.39 1003.00 1002.68 1002.43 1002.25 1002.16 1002.14 1002.20 1002.33 1002.53 1002.81 1003.15
1011.74 1011.79 1011.83 1011.84 1011.81 1011.71 1011.55 1011.32 1011.05 1010.73 1010.38 1010.00 1009.62 1009.23 1008.82 1008.40 1007.96 1007.50 1007.01 1006.49 1005.95 1005.38 1004.82 1004.26 1003.71 1003.20 1002.74 1002.33 1001.99 1001.72 1001.53 1001.42 1001.39 1001.43 1001.55 1001.75 1002.02 1002.36
1012.33 1012.32 1012.31 1012.27 1012.19 1012.06 1011.88 1011.65 1011.38 1011.07 1010.72 1010.35 1009.95 1009.54 1009.09 1008.62 1008.12 1007.59 1007.03 1006.43 1005.82 1005.19 1004.56 1003.95 1003.36 1002.81 1002.31 1001.88 1001.51 1001.22 1001.01 1000.89 1000.84 1000.88 1000.99 1001.19 1001.46 1001.80
1013.06 1013.00 1012.93 1012.84 1012.71 1012.55 1012.35 1012.11 1011.83 1011.52 1011.18 1010.81 1010.41 1009.98 1009.52 1009.01 1008.47 1007.88 1007.26 1006.61 1005.93 1005.24 1004.56 1003.88 1003.25 1002.65 1002.11 1001.64 1001.25 1000.93 1000.70 1000.56 1000.50 1000.53 1000.65 1000.84 1001.12 1001.47
1013.83 1013.73 1013.62 1013.48 1013.32 1013.12 1012.89 1012.64 1012.35 1012.04 1011.70 1011.33 1010.93 1010.49 1010.01 1009.49 1008.91 1008.29 1007.63 1006.93 1006.20 1005.46 1004.72 1004.00 1003.32 1002.67 1002.08 1001.57 1001.13 1000.78 1000.52 1000.36 1000.29 1000.32 1000.44 1000.64 1000.93 1001.30
1014.55 1014.43 1014.29 1014.12 1013.92 1013.69 1013.44 1013.16 1012.86 1012.54 1012.20 1011.82 1011.41 1010.96 1010.47 1009.93 1009.34 1008.69 1008.00 1007.27 1006.51 1005.74 1004.96 1004.19 1003.46 1002.76 1002.12 1001.55 1001.07 1000.67 1000.38 1000.18 1000.10 1000.12 1000.24 1000.46 1000.76 1001.15
1015.14 1015.01 1014.85 1014.65 1014.43 1014.17 1013.89 1013.59 1013.27 1012.93 1012.56 1012.17 1011.75 1011.29 1010.79 1010.24 1009.63 1008.98 1008.28 1007.53 1006.75 1005.95 1005.15 1004.34 1003.56 1002.82 1002.13 1001.50 1000.96 1000.51 1000.16 999.92 999.81 999.80 999.92 1000.15 1000.47 1000.88
Thickness
5653 5655 5657 5660 5663 5666 5668 5670 5670 5671 5676 5684 5691 5697 5701 5704 5707 5710 5712 5714 5716 5717 5718 5719 5719 5720 5720 5720 5720 5720 5719 5718 5717 5716 5714 5713 5712 5710
5650 5652 5654 5656 5659 5661 5663 5666 5668 5669 5671 5678 5684 5690 5695 5698 5701 5704 5706 5709 5710 5712 5713 5714 5715 5716 5716 5716 5716 5716 5715 5714 5713 5712 5711 5710 5708 5707
5648 5650 5651 5653 5655 5657 5659 5661 5663 5666 5667 5672 5677 5682 5687 5690 5694 5697 5700 5702 5704 5706 5708 5709 5710 5711 5711 5712 5712 5711 5711 5710 5709 5708 5707 5706 5704 5703
5647 5648 5649 5650 5651 5653 5655 5657 5659 5662 5663 5665 5670 5674 5679 5683 5687 5690 5694 5696 5699 5701 5703 5704 5705 5706 5706 5707 5707 5707 5706 5706 5705 5704 5703 5702 5700 5699
5646 5646 5646 5647 5648 5650 5651 5653 5655 5658 5659 5660 5664 5668 5672 5677 5680 5683 5686 5689 5692 5694 5696 5698 5699 5700 5701 5702 5702 5702 5702 5702 5701 5700 5699 5697 5696 5694
5645 5645 5645 5646 5646 5647 5649 5650 5651 5653 5654 5655 5658 5661 5665 5669 5672 5675 5677 5680 5684 5687 5689 5691 5693 5694 5695 5696 5696 5697 5697 5696 5696 5695 5694 5693 5692 5690
5644 5644 5645 5645 5646 5647 5648 5648 5649 5649 5650 5651 5653 5656 5658 5661 5664 5667 5669 5672 5676 5679 5681 5684 5686 5688 5689 5690 5690 5691 5691 5691 5691 5690 5689 5688 5687 5685
5643 5643 5644 5644 5645 5646 5647 5647 5648 5647 5648 5648 5649 5651 5654 5657 5659 5661 5662 5664 5667 5673 5674 5676 5679 5681 5683 5683 5685 5685 5686 5686 5685 5685 5684 5683 5681 5680
5642 5641 5642 5643 5643 5643 5644 5645 5645 5647 5648 5648 5648 5649 5651 5653 5654 5655 5657 5659 5662 5666 5666 5668 5672 5674 5676 5678 5679 5679 5680 5680 5680 5679 5679 5678 5676 5675
5641 5640 5639 5640 5641 5641 5641 5642 5642 5644 5645 5646 5647 5649 5650 5651 5652 5653 5653 5654 5656 5658 5660 5661 5664 5667 5669 5671 5673 5673 5674 5674 5674 5674 5673 5672 5671 5669
5640 5640 5639 5639 5640 5640 5640 5640 5640 5641 5643 5645 5646 5647 5648 5649 5649 5648 5648 5648 5649 5652 5654 5656 5658 5659 5662 5665 5666 5667 5668 5668 5668 5668 5667 5667 5665 5663
5639 5639 5639 5638 5639 5638 5637 5637 5637 5638 5640 5641 5643 5644 5645 5646 5646 5646 5646 5645 5645 5646 5649 5650 5651 5651 5653 5657 5658 5660 5660 5661 5661 5661 5661 5660 5658 5656
5637 5636 5637 5637 5637 5637 5636 5635 5635 5636 5637 5638 5639 5640 5641 5642 5643 5643 5644 5644 5643 5644 5645 5645 5645 5645 5647 5648 5650 5652 5653 5654 5654 5654 5653 5653 5652 5650
5636 5635 5635 5635 5635 5635 5634 5634 5634 5635 5634 5635 5636 5636 5637 5638 5639 5639 5640 5640 5641 5642 5642 5641 5641 5641 5641 5641 5642 5644 5645 5646 5646 5647 5647 5646 5644 5644
5634 5634 5633 5633 5632 5632 5632 5632 5632 5631 5630 5631 5631 5632 5633 5633 5634 5635 5635 5635 5636 5636 5637 5637 5636 5636 5636 5636 5637 5637 5637 5639 5639 5640 5639 5639 5638 5637
5632 5630 5630 5629 5628 5627 5627 5626 5626 5626 5626 5626 5626 5627 5628 5628 5628 5629 5630 5630 5630 5631 5631 5631 5631 5630 5630 5631 5631 5631 5631 5632 5633 5633 5633 5633 5632 5631
5627 5625 5623 5622 5621 5620 5620 5620 5620 5621 5620 5621 5621 5622 5622 5622 5623 5623 5623 5624 5624 5625 5625 5625 5624 5624 5624 5624 5625 5626 5627 5627 5628 5628 5627 5627 5627 5627
5621 5618 5615 5614 5613 5612 5612 5613 5613 5613 5614 5614 5615 5615 5615 5616 5616 5616 5616 5617 5617 5618 5618 5618 5618 5617 5617 5619 5620 5622 5622 5622 5622 5621 5621 5621 5623 5623
5613 5610 5607 5606 5605 5604 5604 5604 5604 5605 5605 5606 5607 5608 5608 5609 5609 5609 5609 5609 5610 5611 5611 5611 5610 5611 5612 5615 5618 5617 5617 5617 5616 5615 5615 5616 5619 5620
5602 5599 5598 5597 5596 5595 5595 5595 5595 5596 5596 5597 5598 5598 5599 5600 5601 5601 5602 5602 5603 5603 5604 5604 5604 5605 5607 5609 5611 5611 5611 5611 5611 5611 5611 5610 5610 5611
5590 5589 5587 5586 5586 5585 5585 5585 5586 5586 5586 5586 5586 5587 5588 5589 5590 5591 5593 5594 5594 5596 5597 5599 5600 5600 5600 5600 5602 5605 5605 5606 5607 5607 5606 5604 5603 5604
5578 5577 5576 5575 5574 5574 5574 5574 5574 5574 5574 5574 5574 5575 5576 5577 5578 5580 5582 5583 5585 5587 5589 5591 5592 5591 5591 5593 5597 5600 5599 5599 5599 5600 5600 5602 5601 5602
5566 5564 5563 5562 5561 5561 5561 5561 5561 5560 5560 5560 5561 5562 5563 5564 5565 5567 5569 5571 5573 5576 5578 5580 5581 5581 5583 5586 5589 5591 5592 5592 5591 5591 5593 5595 5596 5598